| time (UTC) | temp F | wind direction | speed MPH | gust MPH | rain 1hr in | rain 24hr in | rain mn in | humidity % | barometer mb |
| 20260505124532 | 74 | 141 | 3.0 | 10.0 | 0.00 | 0.00 | 0.00 | 47 | 1006.7 |
| 20260505123108 | 74 | 197 | 3.0 | 11.0 | 0.00 | 0.00 | 0.00 | 50 | 1006.9 |
| 20260505121507 | 73 | 160 | 3.0 | 10.0 | 0.00 | 0.00 | 0.00 | 49 | 1007.0 |
| 20260505120013 | 73 | 82 | 4.0 | 9.0 | 0.00 | 0.00 | 0.00 | 50 | 1007.0 |
| 20260505114544 | 72 | 245 | 3.0 | 8.0 | 0.00 | 0.00 | 0.00 | 49 | 1007.3 |
| 20260505113051 | 72 | 94 | 3.0 | 7.0 | 0.00 | 0.00 | 0.00 | 51 | 1007.3 |
| 20260505111603 | 70 | 119 | 3.0 | 8.0 | 0.00 | 0.00 | 0.00 | 53 | 1007.4 |
| 20260505101557 | 69 | 140 | 4.0 | 9.0 | 0.00 | 0.00 | 0.00 | 53 | 1008.2 |
| 20260505100015 | 67 | 95 | 3.0 | 10.0 | 0.00 | 0.00 | 0.00 | 55 | 1008.2 |
| 20260505094530 | 66 | 104 | 5.0 | 11.0 | 0.00 | 0.00 | 0.00 | 56 | 1008.3 |
| 20260505093027 | 67 | 137 | 2.0 | 6.0 | 0.00 | 0.00 | 0.00 | 55 | 1008.5 |
| 20260505091556 | 66 | 205 | 3.0 | 10.0 | 0.00 | 0.00 | 0.00 | 56 | 1008.4 |
| 20260505090110 | 66 | 75 | 5.0 | 8.0 | 0.00 | 0.00 | 0.00 | 55 | 1008.7 |
| 20260505084527 | 66 | 80 | 3.0 | 10.0 | 0.00 | 0.00 | 0.00 | 56 | 1008.7 |
| 20260505083106 | 64 | 129 | 3.0 | 7.0 | 0.00 | 0.00 | 0.00 | 58 | 1008.5 |
| 20260505081537 | 63 | 122 | 2.0 | 9.0 | 0.00 | 0.00 | 0.00 | 58 | 1008.7 |
| 20260505080050 | 62 | 79 | 2.0 | 5.0 | 0.00 | 0.00 | 0.00 | 58 | 1008.8 |
| 20260505074556 | 62 | 68 | 1.0 | 4.0 | 0.00 | 0.00 | 0.00 | 60 | 1009.1 |
| 20260505073003 | 60 | 115 | 1.0 | 4.0 | 0.00 | 0.00 | 0.00 | 61 | 1009.2 |
| 20260505071528 | 60 | 72 | 3.0 | 6.0 | 0.00 | 0.00 | 0.00 | 60 | 1009.5 |
| 20260505070051 | 59 | 161 | 1.0 | 4.0 | 0.00 | 0.00 | 0.00 | 62 | 1009.3 |
| 20260505064548 | 57 | 105 | 2.0 | 4.0 | 0.00 | 0.00 | 0.00 | 63 | 1009.5 |
| 20260505063007 | 57 | 97 | 3.0 | 7.0 | 0.00 | 0.00 | 0.00 | 62 | 1009.7 |
| 20260505061509 | 57 | 84 | 0.0 | 4.0 | 0.00 | 0.00 | 0.00 | 61 | 1009.7 |
| 20260505060032 | 56 | 101 | 0.0 | 0.0 | 0.00 | 0.00 | 0.00 | 64 | 1009.8 |
| 20260505054543 | 55 | 105 | 0.0 | 0.0 | 0.00 | 0.00 | 0.00 | 66 | 1010.0 |
| 20260505053009 | 51 | 275 | 0.0 | 0.0 | 0.00 | 0.00 | 0.00 | 76 | 1009.8 |
| 20260505051548 | 49 | 275 | 0.0 | 0.0 | 0.00 | 0.00 | 0.00 | 82 | 1009.7 |
| 20260505050117 | 48 | 275 | 0.0 | 0.0 | 0.00 | 0.00 | 0.00 | 83 | 1009.7 |
| 20260505041522 | 43 | 275 | 0.0 | 0.0 | 0.00 | 0.00 | 0.00 | 87 | 1009.7 |
| 20260505040022 | 43 | 275 | 0.0 | 0.0 | 0.00 | 0.00 | 0.00 | 87 | 1009.8 |
| 20260505034600 | 43 | 275 | 0.0 | 0.0 | 0.00 | 0.00 | 0.00 | 87 | 1009.9 |
| 20260505033023 | 44 | 275 | 0.0 | 0.0 | 0.00 | 0.00 | 0.00 | 86 | 1009.8 |
| 20260505031545 | 44 | 275 | 0.0 | 0.0 | 0.00 | 0.00 | 0.00 | 86 | 1009.9 |
| 20260505030058 | 44 | 275 | 0.0 | 0.0 | 0.00 | 0.00 | 0.00 | 86 | 1009.8 |
| 20260505024505 | 45 | 275 | 0.0 | 0.0 | 0.00 | 0.00 | 0.00 | 85 | 1010.0 |
| 20260505023039 | 45 | 275 | 0.0 | 0.0 | 0.00 | 0.00 | 0.00 | 85 | 1010.1 |
| 20260505021559 | 45 | 275 | 0.0 | 0.0 | 0.00 | 0.00 | 0.00 | 84 | 1010.3 |
| 20260505020007 | 46 | 275 | 0.0 | 0.0 | 0.00 | 0.00 | 0.00 | 83 | 1010.5 |
| 20260505014529 | 46 | 275 | 0.0 | 0.0 | 0.00 | 0.00 | 0.00 | 83 | 1010.6 |
| 20260505013050 | 46 | 275 | 0.0 | 0.0 | 0.00 | 0.00 | 0.00 | 81 | 1010.7 |
| 20260505011508 | 48 | 275 | 0.0 | 0.0 | 0.00 | 0.00 | 0.00 | 78 | 1010.7 |
| 20260505010056 | 48 | 275 | 0.0 | 0.0 | 0.00 | 0.00 | 0.00 | 77 | 1010.7 |
| 20260505004529 | 48 | 275 | 0.0 | 0.0 | 0.00 | 0.00 | 0.00 | 78 | 1010.7 |
| 20260505003039 | 49 | 275 | 0.0 | 0.0 | 0.00 | 0.00 | 0.00 | 78 | 1010.8 |
| 20260505001619 | 49 | 275 | 0.0 | 0.0 | 0.00 | 0.00 | 0.00 | 78 | 1010.9 |
| 20260505000015 | 49 | 275 | 0.0 | 0.0 | 0.00 | 0.00 | 0.00 | 78 | 1011.0 |
| 20260504234610 | 49 | 275 | 0.0 | 0.0 | 0.00 | 0.00 | 0.00 | 78 | 1011.2 |
| 20260504233109 | 49 | 275 | 0.0 | 0.0 | 0.00 | 0.00 | 0.00 | 76 | 1011.4 |
| 20260504231517 | 50 | 275 | 0.0 | 0.0 | 0.00 | 0.00 | 0.00 | 76 | 1011.5 |
| 20260504230022 | 50 | 277 | 0.0 | 0.0 | 0.00 | 0.00 | 0.00 | 78 | 1011.5 |
| 20260504224546 | 50 | 277 | 0.0 | 0.0 | 0.00 | 0.00 | 0.00 | 77 | 1011.6 |
| 20260504223046 | 51 | 268 | 0.0 | 0.0 | 0.00 | 0.00 | 0.00 | 76 | 1011.7 |
| 20260504221603 | 51 | 267 | 0.0 | 0.0 | 0.00 | 0.00 | 0.00 | 76 | 1011.8 |
| 20260504220014 | 52 | 274 | 0.0 | 0.0 | 0.00 | 0.00 | 0.00 | 75 | 1012.0 |
| 20260504214535 | 52 | 274 | 0.0 | 0.0 | 0.00 | 0.00 | 0.00 | 74 | 1012.0 |
| 20260504213104 | 53 | 280 | 0.0 | 0.0 | 0.00 | 0.00 | 0.00 | 74 | 1012.1 |
| 20260504211603 | 53 | 280 | 0.0 | 0.0 | 0.00 | 0.00 | 0.00 | 72 | 1012.3 |
| 20260504210011 | 53 | 281 | 0.0 | 0.0 | 0.00 | 0.00 | 0.00 | 72 | 1012.3 |
| 20260504204511 | 54 | 178 | 0.0 | 0.0 | 0.00 | 0.00 | 0.00 | 73 | 1012.3 |
| 20260504203102 | 55 | 122 | 0.0 | 0.0 | 0.00 | 0.00 | 0.00 | 72 | 1012.3 |
| 20260504201550 | 55 | 122 | 0.0 | 0.0 | 0.00 | 0.00 | 0.00 | 71 | 1012.3 |
| 20260504200015 | 56 | 122 | 0.0 | 0.0 | 0.00 | 0.00 | 0.00 | 70 | 1012.4 |
| 20260504194520 | 57 | 121 | 0.0 | 0.0 | 0.00 | 0.00 | 0.00 | 70 | 1012.3 |
| 20260504193043 | 58 | 121 | 0.0 | 0.0 | 0.00 | 0.00 | 0.00 | 71 | 1012.4 |
| 20260504191604 | 59 | 121 | 0.0 | 0.0 | 0.00 | 0.00 | 0.00 | 69 | 1012.4 |
| 20260504190019 | 60 | 121 | 0.0 | 0.0 | 0.00 | 0.00 | 0.00 | 70 | 1012.4 |
| 20260504184526 | 61 | 121 | 0.0 | 0.0 | 0.00 | 0.00 | 0.00 | 66 | 1012.3 |
| 20260504183041 | 63 | 121 | 0.0 | 0.0 | 0.00 | 0.00 | 0.00 | 63 | 1012.2 |
| 20260504181558 | 65 | 121 | 0.0 | 0.0 | 0.00 | 0.00 | 0.00 | 61 | 1012.2 |
| 20260504180021 | 66 | 111 | 0.0 | 0.0 | 0.00 | 0.00 | 0.00 | 55 | 1012.1 |
| 20260504174540 | 68 | 111 | 0.0 | 0.0 | 0.00 | 0.00 | 0.00 | 50 | 1012.1 |
| 20260504173115 | 69 | 111 | 0.0 | 3.0 | 0.00 | 0.00 | 0.00 | 50 | 1012.2 |
| 20260504171520 | 70 | 115 | 1.0 | 5.0 | 0.00 | 0.00 | 0.00 | 49 | 1012.2 |